GW1496 Weather Reports


Display with metric or nautical units.
time (UTC)temp
F
wind
direction
speed
MPH
gust
MPH
rain 1hr
in
rain 24hr
in
rain mn
in
humidity
%
barometer
mb
20260502232429 52 270 1.0 1.0 0.00 0.00 0.00 41 1005.0
20260502231840 53 202 2.0 2.0 0.00 0.00 0.00 42 1005.0
20260502231212 53 158 0.0 0.0 0.00 0.00 0.00 39 1005.0
20260502230630 53 248 2.0 2.0 0.00 0.00 0.00 40 1005.0
20260502230040 53 158 0.0 0.0 0.00 0.00 0.00 39 1005.0
20260502225434 53 68 2.0 2.0 0.00 0.00 0.00 39 1005.0
20260502224832 54 68 2.0 2.0 0.00 0.00 0.00 39 1005.0
20260502224226 54 112 4.0 5.0 0.00 0.00 0.00 37 1005.0
20260502223035 54 68 3.0 3.0 0.00 0.00 0.00 37 1005.0
20260502222421 54 90 3.0 3.0 0.00 0.00 0.00 41 1005.0
20260502221839 54 112 0.0 0.0 0.00 0.00 0.00 37 1005.0
20260502221254 54 90 2.0 2.0 0.00 0.00 0.00 41 1005.0
20260502220621 54 22 4.0 4.0 0.00 0.00 0.00 38 1005.0
20260502220030 54 68 0.0 0.0 0.00 0.00 0.00 38 1005.0
20260502215411 54 90 2.0 2.0 0.00 0.00 0.00 38 1005.0
20260502214823 55 135 2.0 2.0 0.00 0.00 0.00 38 1005.0
20260502213651 54 112 5.0 5.0 0.00 0.00 0.00 39 1005.0
20260502213041 54 68 4.0 5.0 0.00 0.00 0.00 38 1005.0
20260502212448 54 112 1.0 1.0 0.00 0.00 0.00 39 1005.0
20260502211814 54 90 2.0 2.0 0.00 0.00 0.00 41 1005.0
20260502211238 54 90 2.0 2.0 0.00 0.00 0.00 39 1005.0
20260502210627 55 68 2.0 2.0 0.00 0.00 0.00 39 1005.0
20260502210034 55 158 0.0 0.0 0.00 0.00 0.00 37 1005.0
20260502205414 55 158 3.0 3.0 0.00 0.00 0.00 36 1005.0
20260502204235 55 225 5.0 5.0 0.00 0.00 0.00 37 1005.0
20260502203612 54 225 2.0 2.0 0.00 0.00 0.00 37 1005.0
20260502203052 54 68 5.0 5.0 0.00 0.00 0.00 38 1005.0
20260502202443 54 90 3.0 3.0 0.00 0.00 0.00 39 1005.0
20260502201845 54 90 2.0 2.0 0.00 0.00 0.00 38 1005.0
20260502201211 54 112 2.0 2.0 0.00 0.00 0.00 40 1005.0
20260502200650 55 68 6.0 6.0 0.00 0.00 0.00 39 1005.0
20260502200039 55 68 7.0 8.0 0.00 0.00 0.00 39 1005.0
20260502195414 54 202 1.0 1.0 0.00 0.00 0.00 36 1005.0
20260502194838 54 112 1.0 1.0 0.00 0.00 0.00 42 1005.0
20260502194248 54 90 7.0 8.0 0.00 0.00 0.00 42 1005.0
20260502193634 55 90 4.0 4.0 0.00 0.00 0.00 42 1005.0
20260502193038 55 202 2.0 2.0 0.00 0.00 0.00 41 1005.0
20260502192426 56 248 4.0 5.0 0.00 0.00 0.00 39 1005.0
20260502191852 55 112 2.0 2.0 0.00 0.00 0.00 38 1005.0
20260502190615 54 248 2.0 2.0 0.00 0.00 0.00 40 1005.0
20260502190018 54 112 3.0 4.0 0.00 0.00 0.00 39 1005.0
20260502185437 54 68 3.0 3.0 0.00 0.00 0.00 41 1006.0
20260502184255 55 112 1.0 1.0 0.00 0.00 0.00 38 1006.0
20260502183654 55 248 2.0 2.0 0.00 0.00 0.00 37 1006.0
20260502183016 55 135 1.0 1.0 0.00 0.00 0.00 37 1006.0
20260502182440 54 225 5.0 6.0 0.00 0.00 0.00 37 1006.0
20260502181833 55 180 4.0 5.0 0.00 0.00 0.00 38 1006.0
20260502181254 55 248 5.0 5.0 0.00 0.00 0.00 38 1006.0
20260502180621 56 202 1.0 1.0 0.00 0.00 0.00 38 1006.0
20260502164244 54 292 2.0 2.0 0.00 0.00 0.00 36 1006.0
20260502163631 55 68 6.0 7.0 0.00 0.00 0.00 36 1006.0
20260502163053 56 112 5.0 5.0 0.00 0.00 0.00 37 1006.0
20260502162442 56 112 4.0 4.0 0.00 0.00 0.00 36 1006.0
20260502161816 57 90 1.0 1.0 0.00 0.00 0.00 37 1006.0
20260502161221 57 68 3.0 4.0 0.00 0.00 0.00 35 1006.0
20260502160623 56 68 3.0 3.0 0.00 0.00 0.00 35 1006.0
20260502151833 55 68 5.0 5.0 0.00 0.00 0.00 38 1006.0
20260502151241 55 68 5.0 5.0 0.00 0.00 0.00 38 1006.0
20260502150650 55 112 5.0 5.0 0.00 0.00 0.00 36 1006.0
20260502130631 49 112 2.0 2.0 0.00 0.00 0.00 56 1006.7
20260502123635 46 158 0.0 0.0 0.00 0.00 0.00 71 1006.7
20260502122440 45 158 0.0 0.0 0.00 0.00 0.00 72 1006.7
20260502121222 44 68 0.0 0.0 0.00 0.00 0.00 78 1006.7
20260502120644 43 68 0.0 0.0 0.00 0.00 0.00 78 1006.7
20260502115451 42 68 0.0 0.0 0.00 0.00 0.00 78 1006.7
20260502114813 42 68 0.0 0.0 0.00 0.00 0.00 79 1006.7
20260502114232 42 68 0.0 0.0 0.00 0.00 0.00 79 1006.7
20260502113611 42 68 0.0 0.0 0.00 0.00 0.00 81 1006.7
20260502113039 42 68 0.0 0.0 0.00 0.00 0.00 80 1006.7
20260502112437 41 68 0.0 0.0 0.00 0.00 0.00 82 1006.7
20260502111828 41 68 0.0 0.0 0.00 0.00 0.00 83 1006.7
20260502111226 41 68 0.0 0.0 0.00 0.00 0.00 82 1006.7
20260502110017 41 68 0.0 0.0 0.00 0.00 0.00 82 1006.7
20260502105418 41 68 0.0 0.0 0.00 0.00 0.00 81 1006.0
20260502104829 41 68 0.0 0.0 0.00 0.00 0.00 81 1006.0
20260502104217 41 68 0.0 0.0 0.00 0.00 0.00 81 1006.0
20260502103635 42 68 0.0 0.0 0.00 0.00 0.00 81 1006.0
20260502103043 41 68 0.0 0.0 0.00 0.00 0.00 81 1006.0
20260502102419 41 68 0.0 0.0 0.00 0.00 0.00 81 1006.7
20260502101846 42 68 0.0 0.0 0.00 0.00 0.00 79 1006.7
20260502100630 42 68 0.0 0.0 0.00 0.00 0.00 79 1006.0
20260502091252 43 68 0.0 0.0 0.00 0.00 0.00 73 1006.7
20260502090624 44 68 0.0 0.0 0.00 0.00 0.00 72 1006.7
20260502071224 48 68 0.0 0.0 0.00 0.00 0.00 57 1006.0
20260502070652 48 68 0.0 0.0 0.00 0.00 0.00 58 1006.0
20260502070035 48 90 0.0 0.0 0.00 0.00 0.00 56 1006.0
20260502063651 49 135 0.0 0.0 0.00 0.00 0.00 54 1006.0
20260502063042 49 135 0.0 0.0 0.00 0.00 0.00 57 1006.0
20260502061814 49 135 0.0 0.0 0.00 0.00 0.00 56 1006.0
20260502061249 49 135 0.0 0.0 0.00 0.00 0.00 55 1006.7
20260502060622 49 135 0.0 0.0 0.00 0.00 0.00 53 1006.7
20260502060047 49 180 0.0 0.0 0.00 0.00 0.00 54 1006.7
20260502055448 49 112 3.0 3.0 0.00 0.00 0.00 52 1006.7
20260502054820 50 112 2.0 2.0 0.00 0.00 0.00 53 1006.7
20260502054251 50 68 2.0 2.0 0.00 0.00 0.00 55 1006.0
20260502053021 50 68 2.0 2.0 0.00 0.00 0.00 53 1006.0
20260502052415 50 112 4.0 5.0 0.00 0.00 0.00 52 1006.0
20260502051826 50 112 4.0 5.0 0.00 0.00 0.00 50 1006.0
20260502051220 50 90 3.0 3.0 0.00 0.00 0.00 54 1006.0
20260502050628 51 68 6.0 6.0 0.00 0.00 0.00 58 1006.0
20260502050039 51 68 5.0 5.0 0.00 0.00 0.00 59 1006.0
20260502045433 51 68 5.0 5.0 0.00 0.00 0.00 60 1006.7
20260502044838 51 68 6.0 6.0 0.00 0.00 0.00 63 1006.7
20260502043629 51 112 0.0 0.0 0.00 0.00 0.00 63 1006.0
20260502043043 52 68 2.0 2.0 0.00 0.00 0.00 63 1006.0
20260502042435 52 90 4.0 4.0 0.00 0.00 0.00 63 1006.0
20260502041810 52 112 6.0 7.0 0.00 0.00 0.00 63 1006.0
20260502041217 52 90 0.0 0.0 0.00 0.00 0.00 62 1006.0
20260502040649 52 90 2.0 2.0 0.00 0.00 0.00 62 1006.0
20260502040019 52 68 3.0 3.0 0.00 0.00 0.00 62 1006.0
20260502035442 52 68 2.0 2.0 0.00 0.00 0.00 62 1006.0
20260502034810 52 68 5.0 5.0 0.00 0.00 0.00 62 1006.0
20260502034246 52 68 3.0 3.0 0.00 0.00 0.00 61 1006.0
20260502033649 52 112 1.0 1.0 0.00 0.00 0.00 61 1006.0
20260502033012 53 112 3.0 3.0 0.00 0.00 0.00 62 1006.0
20260502032426 53 90 3.0 4.0 0.00 0.00 0.00 60 1006.0
20260502031841 53 112 0.0 0.0 0.00 0.00 0.00 60 1006.0
20260502031213 53 90 1.0 1.0 0.00 0.00 0.00 59 1006.0
20260502030616 53 112 0.0 0.0 0.00 0.00 0.00 59 1006.0
20260502030046 53 112 1.0 1.0 0.00 0.00 0.00 58 1006.0
20260502025414 53 68 2.0 2.0 0.00 0.00 0.00 58 1006.0
20260502024827 53 90 2.0 2.0 0.00 0.00 0.00 61 1006.0
20260502024219 54 112 1.0 1.0 0.00 0.00 0.00 59 1006.0
20260502023624 54 68 2.0 2.0 0.00 0.00 0.00 59 1006.0
20260502023047 54 68 6.0 6.0 0.00 0.00 0.00 57 1006.0
20260502022427 54 90 7.0 7.0 0.00 0.00 0.00 58 1006.0
20260502021812 54 112 3.0 3.0 0.00 0.00 0.00 58 1006.0
20260502021234 54 68 6.0 6.0 0.00 0.00 0.00 58 1006.0
20260502020614 55 68 3.0 4.0 0.00 0.00 0.00 58 1006.0
20260502020036 55 112 3.0 4.0 0.00 0.00 0.00 58 1006.0
20260502015431 55 112 2.0 2.0 0.00 0.00 0.00 56 1005.0
20260502014842 55 68 5.0 6.0 0.00 0.00 0.00 58 1005.0
20260502014227 55 158 0.0 0.0 0.00 0.00 0.00 58 1005.0
20260502013620 55 112 0.0 0.0 0.00 0.00 0.00 58 1005.0
20260502013036 55 90 0.0 0.0 0.00 0.00 0.00 58 1005.0
20260502012450 55 90 1.0 1.0 0.00 0.00 0.00 58 1005.0
20260502011841 55 68 0.0 0.0 0.00 0.00 0.00 62 1005.0
20260502011224 55 68 0.0 0.0 0.00 0.00 0.00 61 1004.0
20260502010625 56 68 0.0 0.0 0.00 0.00 0.00 62 1004.0
20260502010053 56 68 2.0 2.0 0.00 0.00 0.00 57 1004.0
20260502005446 56 315 2.0 2.0 0.00 0.00 0.00 59 1004.0
20260502004843 56 135 0.0 0.0 0.00 0.00 0.00 59 1004.0
20260502004227 56 68 0.0 0.0 0.00 0.00 0.00 60 1004.0
20260502003649 57 68 0.0 0.0 0.00 0.00 0.00 59 1004.0
20260502002449 57 68 0.0 0.0 0.00 0.00 0.00 57 1004.0
20260502001832 58 90 2.0 2.0 0.00 0.00 0.00 56 1004.0
20260502001246 58 90 1.0 1.0 0.00 0.00 0.00 57 1003.0
20260502000031 59 112 6.0 6.0 0.00 0.00 0.00 53 1003.0
20260501235453 59 68 4.0 4.0 0.00 0.00 0.00 53 1003.0
20260501234840 60 112 7.0 7.0 0.00 0.00 0.00 52 1003.0
20260501234253 60 112 8.0 10.0 0.00 0.00 0.00 51 1002.0
20260501233644 61 112 8.0 8.0 0.00 0.00 0.00 49 1002.0